This demonstration page uses our WeatherBlox Daily Observations layout. Learn more.

Left ArrowRight Arrow

39.01783, -85.05884

Hourly Observations for July 11, 2018

Temp ( °F °C ) Dew Point ( °F °C ) Humidity (%) Winds ( mph kmh ) Pressure ( in mb ) Visibility ( mi km ) Precip ( " mm )
12:52 am 00:52 Mostly Cloudy 76 24.4 73 22.8 91 91 Calm 29.99 1016 10 16 0.00 0.00
1:52 am 01:52 Mostly Cloudy 76 24.4 71 21.7 85 85 Calm 29.99 1016 10 16 0.00 0.00
2:52 am 02:52 Cloudy 76 24.4 70 21.1 82 82 NNE 6 9 29.98 1015 10 16 0.00 0.00
3:52 am 03:52 Mostly Cloudy 75 23.9 70 21.1 84 84 NNE 9 15 29.99 1016 10 16 0.00 0.00
4:52 am 04:52 Partly Cloudy 75 23.9 67 19.4 76 76 ENE 15 24 30.01 1016 10 16 0.00 0.00
5:52 am 05:52 Mostly Clear 74 23.3 63 17.2 69 69 ENE 12 19 30.02 1017 10 16 0.00 0.00
6:52 am 06:52 Cloudy 74 23.3 58 14.4 57 57 E 13 20 30.05 1018 10 16 0.00 0.00
7:52 am 07:52 Partly Cloudy 74 23.3 55 12.8 52 52 ENE 9 15 30.06 1018 10 16 0.00 0.00
8:52 am 08:52 Mostly Cloudy 77 25 54 12.2 45 45 E 12 19 30.07 1018 10 16 0.00 0.00
9:52 am 09:52 Mostly Sunny 78 25.6 55 12.8 45 45 ENE 10 17 30.09 1019 10 16 0.00 0.00
10:52 am 10:52 Mostly Sunny 82 27.8 54 12.2 38 38 ENE 10 17 30.08 1019 10 16 0.00 0.00
11:52 am 11:52 Partly Cloudy 84 28.9 53 11.7 34 34 ENE 12 19 30.08 1019 10 16 0.00 0.00
12:52 pm 12:52 Mostly Cloudy 86 30 51 10.6 30 30 NNE 12 19 30.07 1018 10 16 0.00 0.00
1:52 pm 13:52 Mostly Cloudy 87 30.6 51 10.6 29 29 NNE 13 20 30.08 1019 10 16 0.00 0.00
2:52 pm 14:52 Partly Cloudy 89 31.7 50 10 26 26 N 15 24 30.06 1018 10 16 0.00 0.00
3:50 pm 15:50 Partly Cloudy 88 31 50 10 27 27 N 14 22 30.03 1017 10 16 0.00 0.00
3:52 pm 15:52 Partly Cloudy 88 31.1 50 10 27 27 NNW 14 22 30.05 1018 10 16 0.00 0.00
4:52 pm 16:52 Partly Cloudy 88 31.1 50 10 27 27 N 13 20 30.04 1017 10 16 0.00 0.00
5:52 pm 17:52 Mostly Cloudy 88 31.1 54 12.2 31 31 N 12 19 30.05 1018 10 16 0.00 0.00
6:52 pm 18:52 Partly Cloudy 86 30 54 12.2 33 33 NNE 14 22 30.04 1017 10 16 0.00 0.00
7:52 pm 19:52 Partly Cloudy 83 28.3 54 12.2 37 37 NE 16 26 30.05 1018 10 16 0.00 0.00
8:52 pm 20:52 Mostly Cloudy 80 26.7 55 12.8 42 42 ENE 12 19 30.05 1018 10 16 0.00 0.00
9:52 pm 21:52 Partly Cloudy 78 25.6 56 13.3 47 47 ENE 9 15 30.07 1018 10 16 0.00 0.00
10:52 pm 22:52 Mostly Clear 77 25 56 13.3 48 48 NE 10 17 30.09 1019 10 16 0.00 0.00
11:52 pm 23:52 Partly Cloudy 76 24.4 55 12.8 48 48 NE 13 20 30.11 1020 10 16 0.00 0.00

Powered by AerisWeather